Regional Weather Roundup
Issued by NWS

Home | Current Version | Previous Version | Text Only | Print | Product List | Glossary On
Versions: 1 2 3 4 5 6 7 8 9 10 11 12 13 14 15 16 17 18 19 20 21 22 23 24 25 26 27 28 29 30 31 32 33 34 35 36 37 38 39 40 41 42 43 44 45 46 47 48 49 50
000
ASUS44 KOUN 251810
RWROK

WEATHER ROUNDUP FOR OKLAHOMA
NATIONAL WEATHER SERVICE NORMAN OK
100 PM CDT SAT OCT 25 2014

NOTE: "FAIR" INDICATES FEW OR NO CLOUDS BELOW 12,000 FEET WITH NO
      SIGNIFICANT WEATHER AND/OR OBSTRUCTIONS TO VISIBILITY.

OKZ001>007-009>012-014-015-017-251900-
NORTHWEST OKLAHOMA AND THE PANHANDLE

CITY           SKY/WX    TMP DP  RH WIND       PRES   REMARKS
GAGE           SUNNY     87  50  27 SW10      30.09F
6HR MIN TEMP:  49; 6HR MAX TEMP:  88;

ENID/WOODRING  SUNNY     84  61  45 S9        30.05F
$$

OKZ016-021>023-033>039-044-045-251900-
SOUTHWEST OKLAHOMA

CITY           SKY/WX    TMP DP  RH WIND       PRES   REMARKS
LAWTON/REGL    SUNNY     86  55  34 W9        30.09F
6HR MIN TEMP:  53; 6HR MAX TEMP:  86;

LAWTON/FT SILL SUNNY     85  58  39 W8        30.08F
FREDERICK      SUNNY     87  53  31 SW12      30.07F
CLINTON        SUNNY     85  54  34 SW10      30.12F
HOBART         SUNNY     87  52  29 W10       30.10F
ALTUS AFB      SUNNY     85  55  35 VRB6      30.10F
$$

OKZ018>020-024>031-251900-
CENTRAL OKLAHOMA

CITY           SKY/WX    TMP DP  RH WIND       PRES   REMARKS
OKLAHOMA CITY  SUNNY     85  58  39 SW8       30.08F
6HR MIN TEMP:  58; 6HR MAX TEMP:  86;

OKC/WILEY POST SUNNY     83  59  44 VRB7      30.08F
OKC/TINKER AFB SUNNY     79  61  53 SW9       30.10S
STILLWATER     SUNNY     85  61  44 SE6       30.06F
GUTHRIE        SUNNY     83  60  45 VRB5      30.07F
$$

OKZ008-013-054>072-251900-
NORTHEAST OKLAHOMA

CITY           SKY/WX    TMP DP  RH WIND       PRES   REMARKS
TULSA          SUNNY     80  63  55 SE7       30.06F
6HR MIN TEMP:  59; 6HR MAX TEMP:  80;

TULSA/JONES    SUNNY     81  63  54 SW3       30.07F
PONCA CITY     SUNNY     81  61  50 VRB3      30.05F
BARTLESVILLE   SUNNY     80  63  55 CALM      30.07F
MUSKOGEE       SUNNY     81  62  52 S6        30.09F
$$

OKZ032-040>043-046>053-073>077-251900-
SOUTH CENTRAL/SOUTHEAST OKLAHOMA

CITY           SKY/WX    TMP DP  RH WIND       PRES   REMARKS
ARDMORE/DWNTWN SUNNY     84  55  37 W6        30.10F
MCALESTER      SUNNY     81  62  52 VRB5      30.10F
$$




USA.gov is the U.S. government's official web portal to all federal, state and local government web resources and services.